QPF
0.02 0.01 0.00 0.00 0.00 0.01 0.01 0.01 0.02 0.02 0.02 0.02 0.03 0.05 0.05 0.05 0.04 0.04 0.04 0.04 0.03 0.03 0.03 0.02 0.04 0.03 0.03 0.03 0.03 0.04 0.04 0.03 0.04 0.04 0.04 0.03 0.03 0.04 0.04 0.05 0.07 0.08 0.10
0.02 0.01 0.01 0.02 0.01 0.01 0.01 0.01 0.02 0.02 0.02 0.02 0.03 0.04 0.03 0.04 0.04 0.05 0.04 0.03 0.03 0.03 0.03 0.03 0.03 0.03 0.04 0.04 0.03 0.03 0.04 0.03 0.03 0.04 0.04 0.03 0.03 0.02 0.02 0.04 0.06 0.07 0.09
0.01 0.01 0.02 0.03 0.02 0.01 0.01 0.01 0.01 0.02 0.03 0.03 0.03 0.03 0.04 0.05 0.05 0.05 0.05 0.04 0.04 0.03 0.02 0.01 0.02 0.04 0.03 0.04 0.04 0.03 0.04 0.05 0.03 0.04 0.05 0.06 0.05 0.04 0.02 0.02 0.02 0.04 0.06
0.01 0.02 0.02 0.02 0.02 0.01 0.01 0.01 0.01 0.02 0.03 0.03 0.03 0.03 0.04 0.04 0.05 0.05 0.06 0.06 0.04 0.03 0.03 0.03 0.03 0.04 0.04 0.04 0.03 0.02 0.03 0.04 0.05 0.04 0.04 0.04 0.05 0.05 0.04 0.03 0.02 0.02 0.02
0.01 0.02 0.02 0.02 0.02 0.02 0.01 0.01 0.01 0.03 0.07 0.05 0.03 0.03 0.03 0.03 0.04 0.05 0.07 0.06 0.05 0.03 0.03 0.03 0.02 0.03 0.03 0.04 0.03 0.05 0.04 0.03 0.04 0.04 0.04 0.05 0.05 0.05 0.05 0.04 0.03 0.02 0.02
0.01 0.01 0.01 0.01 0.02 0.03 0.02 0.01 0.01 0.04 0.07 0.06 0.02 0.02 0.02 0.03 0.04 0.05 0.07 0.06 0.06 0.05 0.03 0.02 0.02 0.02 0.02 0.03 0.03 0.03 0.03 0.03 0.04 0.04 0.03 0.05 0.05 0.05 0.05 0.04 0.03 0.03 0.02
0.01 0.01 0.01 0.01 0.02 0.02 0.01 0.00 0.02 0.03 0.04 0.03 0.01 0.01 0.02 0.03 0.04 0.04 0.04 0.06 0.09 0.10 0.09 0.04 0.03 0.03 0.03 0.03 0.02 0.02 0.02 0.02 0.03 0.03 0.03 0.04 0.04 0.05 0.05 0.05 0.04 0.03 0.02
0.01 0.01 0.01 0.01 0.01 0.01 0.00 0.00 0.01 0.01 0.01 0.02 0.02 0.01 0.02 0.03 0.03 0.03 0.02 0.02 0.04 0.07 0.10 0.10 0.06 0.03 0.03 0.03 0.02 0.02 0.02 0.02 0.02 0.02 0.04 0.04 0.04 0.04 0.04 0.05 0.05 0.04 0.03
0.00 0.00 0.00 0.00 0.00 0.01 0.00 0.01 0.01 0.01 0.02 0.03 0.03 0.02 0.04 0.04 0.03 0.02 0.01 0.01 0.02 0.02 0.04 0.07 0.09 0.08 0.05 0.03 0.02 0.02 0.01 0.01 0.01 0.02 0.02 0.02 0.03 0.03 0.03 0.04 0.05 0.05 0.04
0.00 0.00 0.00 0.00 0.00 0.01 0.01 0.01 0.01 0.01 0.03 0.03 0.02 0.01 0.01 0.01 0.01 0.01 0.01 0.01 0.01 0.01 0.02 0.03 0.04 0.07 0.08 0.06 0.03 0.02 0.01 0.01 0.01 0.02 0.01 0.01 0.02 0.02 0.03 0.04 0.04 0.04 0.04
0.00 0.00 0.01 0.01 0.01 0.02 0.01 0.01 0.01 0.01 0.02 0.02 0.01 0.00 0.01 0.01 0.02 0.01 0.01 0.01 0.01 0.01 0.01 0.03 0.02 0.02 0.04 0.05 0.06 0.05 0.03 0.02 0.02 0.02 0.02 0.01 0.02 0.02 0.02 0.03 0.03 0.03 0.03
0.01 0.01 0.01 0.01 0.01 0.01 0.01 0.01 0.01 0.01 0.02 0.01 0.01 0.01 0.01 0.01 0.01 0.01 0.02 0.01 0.01 0.01 0.01 0.02 0.02 0.02 0.02 0.02 0.03 0.05 0.06 0.06 0.04 0.03 0.03 0.02 0.02 0.02 0.02 0.02 0.02 0.02 0.03
0.01 0.01 0.01 0.02 0.02 0.01 0.01 0.00 0.01 0.01 0.02 0.01 0.01 0.01 0.01 0.01 0.01 0.02 0.02 0.01 0.01 0.01 0.01 0.01 0.01 0.01 0.02 0.02 0.01 0.02 0.02 0.03 0.04 0.04 0.05 0.05 0.04 0.03 0.03 0.02 0.02 0.02 0.03
0.01 0.01 0.01 0.01 0.01 0.01 0.01 0.01 0.01 0.01 0.01 0.01 0.01 0.02 0.01 0.01 0.01 0.01 0.01 0.01 0.02 0.01 0.01 0.00 0.00 0.00 0.01 0.02 0.02 0.01 0.01 0.01 0.01 0.01 0.02 0.02 0.03 0.05 0.05 0.04 0.03 0.03 0.03
0.01 0.01 0.01 0.01 0.01 0.01 0.01 0.01 0.01 0.01 0.01 0.01 0.02 0.02 0.02 0.01 0.01 0.01 0.01 0.01 0.02 0.01 0.01 0.00 0.00 0.00 0.01 0.01 0.01 0.01 0.01 0.01 0.01 0.01 0.01 0.01 0.02 0.02 0.03 0.04 0.04 0.05 0.05
0.01 0.01 0.01 0.01 0.01 0.01 0.01 0.01 0.01 0.01 0.01 0.01 0.02 0.02 0.02 0.02 0.01 0.01 0.01 0.01 0.01 0.01 0.01 0.00 0.00 0.00 0.00 0.00 0.00 0.01 0.01 0.01 0.01 0.01 0.01 0.01 0.01 0.01 0.02 0.02 0.02 0.03 0.04
0.02 0.01 0.01 0.02 0.02 0.01 0.02 0.02 0.02 0.02 0.02 0.02 0.02 0.03 0.03 0.02 0.02 0.02 0.02 0.02 0.01 0.01 0.01 0.00 0.00 0.00 0.01 0.00 0.00 0.00 0.01 0.01 0.01 0.01 0.01 0.01 0.01 0.01 0.01 0.01 0.01 0.02 0.02
0.02 0.02 0.02 0.02 0.02 0.01 0.01 0.02 0.02 0.03 0.03 0.04 0.04 0.04 0.03 0.02 0.02 0.02 0.02 0.02 0.02 0.01 0.01 0.01 0.01 0.01 0.01 0.00 0.00 0.00 0.01 0.01 0.01 0.01 0.01 0.01 0.01 0.02 0.02 0.02 0.02 0.02 0.02
0.02 0.02 0.02 0.02 0.01 0.01 0.02 0.02 0.03 0.03 0.03 0.04 0.04 0.03 0.02 0.01 0.01 0.01 0.01 0.02 0.02 0.02 0.01 0.01 0.01 0.01 0.01 0.01 0.00 0.00 0.00 0.01 0.01 0.01 0.01 0.01 0.01 0.02 0.02 0.02 0.02 0.03 0.03
0.01 0.02 0.01 0.01 0.01 0.01 0.02 0.03 0.03 0.03 0.03 0.03 0.01 0.01 0.01 0.01 0.01 0.01 0.01 0.02 0.01 0.01 0.01 0.01 0.01 0.02 0.02 0.02 0.01 0.01 0.01 0.01 0.01 0.01 0.01 0.01 0.01 0.01 0.02 0.02 0.02 0.03 0.02
0.01 0.01 0.01 0.01 0.01 0.02 0.02 0.03 0.04 0.04 0.03 0.02 0.01 0.01 0.01 0.01 0.01 0.01 0.01 0.01 0.01 0.01 0.01 0.01 0.02 0.02 0.02 0.03 0.03 0.02 0.02 0.01 0.01 0.01 0.01 0.01 0.01 0.02 0.02 0.03 0.02 0.02 0.02
0.01 0.01 0.01 0.02 0.02 0.02 0.02 0.03 0.03 0.03 0.02 0.01 0.01 0.01 0.01 0.01 0.01 0.01 0.01 0.02 0.02 0.02 0.02 0.03 0.03 0.04 0.04 0.04 0.05 0.04 0.03 0.03 0.02 0.02 0.02 0.02 0.02 0.02 0.02 0.02 0.03 0.03 0.03
0.01 0.01 0.02 0.03 0.03 0.03 0.03 0.03 0.02 0.01 0.01 0.01 0.01 0.01 0.01 0.01 0.01 0.01 0.01 0.01 0.02 0.02 0.02 0.04 0.07 0.08 0.08 0.08 0.07 0.05 0.04 0.04 0.03 0.02 0.03 0.03 0.03 0.03 0.02 0.02 0.02 0.03 0.02
0.01 0.02 0.03 0.04 0.03 0.02 0.02 0.03 0.02 0.01 0.01 0.01 0.01 0.02 0.01 0.01 0.01 0.01 0.01 0.01 0.02 0.01 0.01 0.02 0.02 0.03 0.03 0.04 0.04 0.04 0.03 0.04 0.04 0.03 0.04 0.04 0.04 0.03 0.02 0.02 0.02 0.02 0.02
0.03 0.03 0.03 0.03 0.03 0.02 0.02 0.02 0.01 0.01 0.01 0.01 0.01 0.02 0.01 0.01 0.01 0.01 0.01 0.02 0.02 0.02 0.02 0.01 0.01 0.01 0.01 0.01 0.01 0.03 0.03 0.03 0.02 0.03 0.03 0.02 0.03 0.03 0.03 0.03 0.02 0.02 0.02
0.02 0.02 0.02 0.01 0.01 0.01 0.01 0.01 0.01 0.01 0.01 0.01 0.01 0.01 0.01 0.01 0.01 0.01 0.01 0.02 0.02 0.02 0.02 0.02 0.01 0.01 0.01 0.01 0.02 0.03 0.03 0.04 0.03 0.03 0.02 0.03 0.03 0.03 0.03 0.03 0.02 0.02 0.01
MSLP
1016.70 1016.63 1016.55 1016.42 1016.22 1015.95 1015.59 1015.15 1014.66 1014.13 1013.58 1013.04 1012.52 1012.03 1011.57 1011.14 1010.72 1010.32 1009.93 1009.56 1009.19 1008.84 1008.53 1008.25 1008.02 1007.83 1007.70 1007.62 1007.59 1007.60 1007.63 1007.69 1007.76 1007.86 1007.97 1008.10 1008.26 1008.45 1008.66 1008.89 1009.14 1009.41 1009.68
1016.96 1016.87 1016.79 1016.69 1016.54 1016.32 1016.04 1015.69 1015.28 1014.83 1014.35 1013.87 1013.38 1012.89 1012.42 1011.96 1011.52 1011.09 1010.68 1010.28 1009.90 1009.54 1009.21 1008.90 1008.62 1008.37 1008.15 1007.96 1007.81 1007.70 1007.63 1007.61 1007.63 1007.70 1007.82 1007.98 1008.17 1008.38 1008.59 1008.80 1009.00 1009.19 1009.36
1017.17 1017.08 1017.00 1016.90 1016.77 1016.60 1016.37 1016.09 1015.76 1015.40 1015.00 1014.58 1014.14 1013.69 1013.23 1012.78 1012.32 1011.89 1011.47 1011.08 1010.71 1010.36 1010.04 1009.72 1009.42 1009.13 1008.84 1008.58 1008.34 1008.13 1007.97 1007.88 1007.86 1007.90 1008.00 1008.15 1008.33 1008.52 1008.69 1008.83 1008.93 1009.00 1009.02
1017.39 1017.30 1017.20 1017.10 1016.96 1016.80 1016.60 1016.37 1016.10 1015.80 1015.49 1015.14 1014.76 1014.37 1013.95 1013.52 1013.09 1012.67 1012.28 1011.90 1011.56 1011.25 1010.95 1010.66 1010.36 1010.06 1009.74 1009.42 1009.12 1008.84 1008.62 1008.46 1008.38 1008.38 1008.44 1008.56 1008.69 1008.82 1008.91 1008.94 1008.91 1008.82 1008.69
1017.64 1017.55 1017.44 1017.31 1017.16 1016.97 1016.76 1016.54 1016.31 1016.07 1015.82 1015.54 1015.23 1014.90 1014.54 1014.15 1013.76 1013.37 1013.01 1012.67 1012.37 1012.09 1011.83 1011.58 1011.30 1011.01 1010.69 1010.35 1010.00 1009.68 1009.40 1009.20 1009.06 1009.00 1009.02 1009.07 1009.13 1009.17 1009.15 1009.07 1008.90 1008.66 1008.39
1017.94 1017.86 1017.74 1017.57 1017.37 1017.14 1016.91 1016.67 1016.45 1016.24 1016.02 1015.80 1015.56 1015.28 1014.97 1014.63 1014.28 1013.93 1013.60 1013.30 1013.03 1012.79 1012.57 1012.35 1012.11 1011.83 1011.52 1011.18 1010.82 1010.48 1010.16 1009.90 1009.72 1009.61 1009.56 1009.54 1009.52 1009.48 1009.37 1009.17 1008.89 1008.54 1008.14
1018.29 1018.22 1018.08 1017.88 1017.63 1017.35 1017.07 1016.81 1016.57 1016.36 1016.17 1015.98 1015.78 1015.55 1015.28 1014.98 1014.65 1014.32 1014.01 1013.73 1013.48 1013.27 1013.08 1012.88 1012.67 1012.42 1012.13 1011.80 1011.44 1011.08 1010.74 1010.45 1010.22 1010.06 1009.96 1009.88 1009.81 1009.70 1009.52 1009.25 1008.90 1008.47 1008.00
1018.68 1018.61 1018.46 1018.23 1017.94 1017.61 1017.29 1016.99 1016.73 1016.51 1016.33 1016.16 1015.98 1015.76 1015.52 1015.23 1014.91 1014.59 1014.28 1013.99 1013.75 1013.54 1013.36 1013.18 1012.98 1012.75 1012.47 1012.15 1011.80 1011.44 1011.09 1010.78 1010.53 1010.34 1010.20 1010.09 1009.98 1009.83 1009.62 1009.33 1008.95 1008.50 1008.00
1019.04 1019.00 1018.84 1018.60 1018.28 1017.92 1017.56 1017.24 1016.96 1016.74 1016.55 1016.38 1016.20 1016.00 1015.75 1015.46 1015.13 1014.79 1014.46 1014.16 1013.90 1013.68 1013.48 1013.30 1013.12 1012.90 1012.63 1012.32 1011.98 1011.62 1011.26 1010.95 1010.68 1010.47 1010.32 1010.19 1010.07 1009.93 1009.72 1009.45 1009.09 1008.66 1008.18
1019.35 1019.32 1019.17 1018.92 1018.60 1018.24 1017.88 1017.55 1017.27 1017.04 1016.86 1016.69 1016.51 1016.30 1016.04 1015.73 1015.38 1015.02 1014.66 1014.33 1014.05 1013.81 1013.61 1013.42 1013.23 1013.01 1012.75 1012.44 1012.10 1011.74 1011.39 1011.06 1010.80 1010.58 1010.42 1010.30 1010.19 1010.06 1009.89 1009.65 1009.34 1008.95 1008.51
1019.54 1019.53 1019.40 1019.17 1018.86 1018.52 1018.18 1017.88 1017.62 1017.41 1017.24 1017.07 1016.89 1016.67 1016.40 1016.08 1015.71 1015.32 1014.95 1014.61 1014.31 1014.06 1013.85 1013.66 1013.46 1013.24 1012.98 1012.67 1012.33 1011.96 1011.60 1011.27 1010.99 1010.77 1010.60 1010.49 1010.39 1010.28 1010.14 1009.95 1009.68 1009.35 1008.95
1019.60 1019.60 1019.50 1019.30 1019.02 1018.72 1018.42 1018.16 1017.94 1017.76 1017.61 1017.46 1017.29 1017.07 1016.80 1016.47 1016.10 1015.72 1015.35 1015.01 1014.72 1014.48 1014.27 1014.09 1013.89 1013.67 1013.41 1013.09 1012.74 1012.36 1011.99 1011.64 1011.34 1011.10 1010.93 1010.80 1010.70 1010.61 1010.49 1010.32 1010.08 1009.78 1009.42
1019.52 1019.54 1019.46 1019.28 1019.06 1018.81 1018.56 1018.36 1018.18 1018.04 1017.92 1017.79 1017.63 1017.42 1017.16 1016.84 1016.49 1016.13 1015.79 1015.49 1015.23 1015.02 1014.84 1014.68 1014.50 1014.28 1014.02 1013.69 1013.32 1012.93 1012.53 1012.16 1011.84 1011.58 1011.38 1011.23 1011.11 1011.00 1010.87 1010.70 1010.47 1010.17 1009.82
1019.34 1019.37 1019.30 1019.16 1018.97 1018.77 1018.58 1018.42 1018.29 1018.19 1018.10 1017.98 1017.84 1017.64 1017.40 1017.10 1016.79 1016.48 1016.19 1015.94 1015.74 1015.57 1015.44 1015.31 1015.15 1014.94 1014.68 1014.35 1013.98 1013.56 1013.15 1012.75 1012.40 1012.11 1011.88 1011.70 1011.54 1011.40 1011.24 1011.03 1010.78 1010.47 1010.10
1019.11 1019.14 1019.07 1018.95 1018.80 1018.63 1018.48 1018.36 1018.26 1018.19 1018.11 1018.00 1017.87 1017.68 1017.46 1017.20 1016.92 1016.66 1016.42 1016.24 1016.09 1015.99 1015.90 1015.80 1015.68 1015.49 1015.23 1014.90 1014.52 1014.11 1013.68 1013.28 1012.92 1012.60 1012.35 1012.13 1011.94 1011.75 1011.54 1011.28 1010.98 1010.63 1010.23
1018.88 1018.89 1018.83 1018.72 1018.57 1018.43 1018.30 1018.20 1018.12 1018.04 1017.96 1017.86 1017.72 1017.53 1017.31 1017.07 1016.82 1016.60 1016.42 1016.28 1016.18 1016.12 1016.08 1016.02 1015.91 1015.74 1015.50 1015.18 1014.82 1014.42 1014.01 1013.62 1013.27 1012.96 1012.70 1012.46 1012.24 1012.01 1011.75 1011.44 1011.09 1010.69 1010.25
1018.68 1018.68 1018.61 1018.49 1018.35 1018.21 1018.09 1017.99 1017.90 1017.82 1017.72 1017.59 1017.43 1017.22 1017.00 1016.75 1016.52 1016.30 1016.14 1016.03 1015.96 1015.92 1015.89 1015.84 1015.75 1015.60 1015.39 1015.11 1014.78 1014.42 1014.06 1013.72 1013.41 1013.14 1012.90 1012.68 1012.45 1012.20 1011.90 1011.54 1011.14 1010.69 1010.20
1018.52 1018.51 1018.42 1018.30 1018.15 1018.01 1017.88 1017.77 1017.66 1017.55 1017.42 1017.26 1017.06 1016.83 1016.57 1016.30 1016.04 1015.82 1015.64 1015.52 1015.44 1015.39 1015.35 1015.30 1015.22 1015.09 1014.90 1014.66 1014.40 1014.11 1013.83 1013.57 1013.34 1013.14 1012.96 1012.78 1012.57 1012.32 1012.01 1011.63 1011.18 1010.69 1010.16
1018.40 1018.36 1018.26 1018.12 1017.97 1017.82 1017.68 1017.55 1017.42 1017.28 1017.12 1016.93 1016.69 1016.42 1016.12 1015.81 1015.51 1015.24 1015.02 1014.85 1014.73 1014.64 1014.57 1014.50 1014.41 1014.30 1014.15 1013.98 1013.79 1013.59 1013.42 1013.26 1013.14 1013.03 1012.92 1012.80 1012.63 1012.40 1012.10 1011.71 1011.24 1010.72 1010.16
1018.27 1018.21 1018.09 1017.94 1017.78 1017.62 1017.46 1017.32 1017.18 1017.02 1016.84 1016.61 1016.34 1016.03 1015.69 1015.34 1014.99 1014.66 1014.38 1014.14 1013.96 1013.81 1013.70 1013.60 1013.50 1013.41 1013.30 1013.19 1013.08 1013.00 1012.92 1012.88 1012.85 1012.84 1012.81 1012.75 1012.63 1012.43 1012.14 1011.76 1011.29 1010.76 1010.18
1018.09 1018.00 1017.87 1017.70 1017.53 1017.36 1017.20 1017.04 1016.89 1016.72 1016.53 1016.29 1016.00 1015.67 1015.30 1014.91 1014.52 1014.14 1013.79 1013.49 1013.23 1013.03 1012.87 1012.74 1012.64 1012.56 1012.50 1012.45 1012.42 1012.42 1012.44 1012.48 1012.54 1012.58 1012.61 1012.59 1012.50 1012.33 1012.06 1011.69 1011.24 1010.72 1010.15
1017.84 1017.72 1017.56 1017.38 1017.18 1017.00 1016.83 1016.67 1016.52 1016.35 1016.15 1015.91 1015.63 1015.30 1014.92 1014.51 1014.08 1013.67 1013.28 1012.92 1012.62 1012.37 1012.17 1012.03 1011.92 1011.86 1011.84 1011.84 1011.87 1011.92 1012.00 1012.08 1012.16 1012.24 1012.27 1012.25 1012.17 1012.00 1011.74 1011.40 1010.97 1010.48 1009.94
1017.52 1017.36 1017.17 1016.96 1016.74 1016.53 1016.34 1016.17 1016.01 1015.84 1015.65 1015.43 1015.16 1014.84 1014.48 1014.08 1013.65 1013.23 1012.82 1012.44 1012.11 1011.84 1011.63 1011.48 1011.38 1011.34 1011.33 1011.36 1011.42 1011.49 1011.56 1011.64 1011.69 1011.72 1011.71 1011.64 1011.52 1011.34 1011.07 1010.74 1010.36 1009.92 1009.45
1017.15 1016.95 1016.71 1016.46 1016.20 1015.95 1015.73 1015.53 1015.35 1015.18 1015.00 1014.79 1014.55 1014.26 1013.94 1013.57 1013.17 1012.76 1012.37 1012.00 1011.67 1011.40 1011.19 1011.05 1010.96 1010.93 1010.94 1010.97 1011.01 1011.05 1011.08 1011.08 1011.04 1010.98 1010.86 1010.71 1010.51 1010.27 1010.00 1009.69 1009.36 1009.00 1008.62
1016.76 1016.51 1016.22 1015.91 1015.59 1015.30 1015.02 1014.78 1014.57 1014.38 1014.20 1014.00 1013.79 1013.55 1013.27 1012.95 1012.60 1012.24 1011.88 1011.54 1011.24 1011.00 1010.80 1010.68 1010.60 1010.58 1010.57 1010.58 1010.57 1010.54 1010.48 1010.36 1010.19 1009.98 1009.73 1009.46 1009.16 1008.86 1008.56 1008.27 1008.00 1007.72 1007.46
1016.40 1016.09 1015.74 1015.36 1014.98 1014.61 1014.28 1013.97 1013.72 1013.50 1013.31 1013.12 1012.94 1012.74 1012.51 1012.24 1011.96 1011.65 1011.34 1011.05 1010.80 1010.58 1010.41 1010.30 1010.24 1010.20 1010.17 1010.13 1010.06 1009.93 1009.74 1009.49 1009.17 1008.81 1008.40 1008.00 1007.59 1007.22 1006.90 1006.63 1006.42 1006.24 1006.10
Thickness
5811 5810 5807 5804 5800 5796 5792 5789 5787 5785 5783 5782 5781 5778 5778 5778 5777 5776 5774 5773 5772 5772 5772 5773 5771 5771 5771 5768 5768 5767 5766 5765 5765 5765 5764 5766 5768 5766 5766 5765 5764 5763 5761
5810 5808 5805 5803 5800 5796 5792 5789 5786 5785 5783 5781 5780 5778 5777 5777 5776 5775 5772 5772 5771 5770 5772 5769 5771 5769 5767 5766 5765 5764 5764 5764 5765 5762 5760 5759 5760 5762 5765 5763 5761 5761 5761
5811 5808 5805 5802 5800 5796 5793 5791 5787 5784 5782 5780 5780 5778 5776 5775 5774 5772 5771 5770 5769 5769 5768 5767 5768 5766 5767 5764 5762 5761 5760 5760 5762 5762 5758 5753 5751 5756 5761 5760 5760 5759 5759
5816 5812 5808 5803 5800 5798 5795 5791 5787 5783 5781 5779 5778 5775 5772 5770 5769 5769 5769 5768 5767 5767 5766 5765 5764 5764 5765 5761 5761 5761 5760 5757 5757 5759 5758 5757 5755 5750 5750 5755 5758 5757 5756
5819 5813 5809 5805 5803 5800 5795 5791 5786 5783 5781 5778 5775 5772 5771 5770 5769 5768 5765 5765 5765 5764 5763 5762 5762 5760 5761 5759 5758 5757 5756 5757 5755 5755 5755 5753 5752 5752 5746 5744 5748 5753 5755
5819 5815 5812 5808 5803 5800 5795 5792 5786 5781 5780 5777 5774 5770 5767 5765 5764 5762 5761 5763 5763 5761 5760 5760 5758 5758 5757 5755 5754 5753 5753 5753 5751 5752 5752 5751 5748 5747 5745 5743 5743 5745 5750
5817 5813 5809 5805 5801 5798 5795 5792 5786 5780 5778 5775 5772 5769 5767 5765 5761 5761 5760 5759 5760 5758 5756 5757 5754 5754 5753 5752 5751 5750 5750 5749 5747 5746 5747 5748 5748 5747 5745 5742 5741 5741 5746
5817 5813 5809 5805 5802 5799 5795 5790 5785 5780 5777 5774 5771 5769 5767 5766 5764 5760 5759 5758 5757 5756 5753 5752 5751 5750 5750 5750 5748 5749 5747 5745 5743 5744 5742 5743 5745 5745 5743 5741 5738 5736 5739
5815 5812 5809 5807 5803 5799 5795 5791 5784 5779 5776 5774 5770 5767 5764 5762 5760 5757 5756 5756 5753 5753 5750 5748 5747 5746 5745 5744 5743 5743 5741 5740 5740 5740 5739 5739 5740 5740 5740 5739 5736 5732 5729
5813 5810 5808 5806 5803 5800 5796 5791 5785 5779 5776 5773 5770 5767 5762 5759 5757 5755 5752 5751 5749 5747 5746 5744 5743 5741 5740 5739 5738 5738 5736 5734 5734 5733 5732 5732 5735 5735 5735 5734 5734 5732 5729
5811 5808 5806 5804 5802 5798 5795 5789 5784 5779 5775 5771 5766 5763 5760 5757 5755 5752 5750 5748 5745 5743 5741 5740 5738 5736 5735 5734 5732 5733 5731 5729 5729 5728 5728 5727 5727 5728 5729 5729 5728 5728 5726
5809 5807 5804 5800 5797 5794 5792 5787 5782 5777 5773 5769 5764 5760 5757 5754 5752 5750 5747 5745 5742 5740 5738 5736 5734 5732 5731 5729 5727 5726 5726 5724 5723 5722 5721 5720 5722 5720 5721 5721 5722 5721 5720
5803 5801 5798 5795 5791 5790 5787 5784 5780 5776 5772 5767 5762 5758 5754 5751 5748 5746 5744 5742 5739 5736 5735 5732 5730 5728 5726 5724 5723 5721 5720 5719 5718 5717 5715 5714 5714 5713 5714 5713 5714 5715 5717
5796 5794 5791 5788 5786 5784 5781 5779 5776 5773 5770 5765 5759 5754 5751 5748 5746 5743 5741 5738 5735 5732 5729 5728 5725 5723 5722 5719 5718 5717 5715 5714 5713 5712 5710 5709 5708 5706 5706 5707 5707 5708 5708
5789 5787 5785 5782 5780 5778 5775 5773 5770 5768 5764 5760 5755 5751 5749 5746 5742 5739 5736 5733 5730 5729 5724 5722 5720 5719 5717 5714 5711 5710 5710 5708 5707 5706 5705 5704 5701 5699 5698 5700 5701 5700 5700
5782 5781 5780 5777 5773 5771 5769 5767 5764 5762 5758 5754 5750 5748 5745 5741 5738 5735 5732 5728 5724 5722 5719 5717 5714 5712 5711 5705 5701 5700 5703 5702 5700 5699 5699 5699 5697 5694 5691 5690 5689 5689 5690
5776 5775 5775 5772 5769 5767 5764 5761 5759 5756 5752 5748 5744 5741 5738 5735 5732 5730 5726 5722 5719 5716 5713 5711 5708 5705 5701 5696 5694 5692 5693 5695 5693 5692 5690 5691 5692 5688 5687 5686 5684 5683 5682
5770 5769 5769 5768 5766 5764 5760 5756 5753 5749 5745 5741 5737 5733 5732 5729 5726 5723 5719 5716 5713 5710 5707 5704 5701 5698 5695 5689 5687 5684 5687 5688 5687 5685 5683 5681 5680 5679 5677 5678 5680 5680 5681
5767 5765 5764 5763 5759 5756 5752 5748 5744 5741 5737 5733 5729 5727 5724 5721 5718 5715 5712 5710 5707 5704 5701 5699 5695 5692 5688 5682 5679 5676 5681 5681 5680 5679 5677 5674 5672 5668 5666 5668 5669 5671 5673
5761 5759 5757 5754 5750 5747 5744 5739 5735 5732 5728 5725 5722 5719 5717 5713 5710 5708 5706 5704 5700 5698 5696 5693 5690 5686 5682 5677 5672 5668 5674 5673 5673 5672 5670 5665 5661 5659 5656 5658 5659 5660 5662
5752 5750 5747 5743 5739 5737 5734 5729 5726 5723 5721 5719 5715 5712 5709 5707 5704 5701 5699 5697 5694 5691 5688 5685 5683 5679 5675 5671 5666 5662 5664 5664 5663 5663 5662 5659 5652 5649 5647 5646 5649 5649 5650
5742 5740 5736 5732 5730 5728 5725 5720 5717 5715 5713 5710 5706 5703 5702 5701 5699 5694 5691 5689 5685 5683 5680 5677 5675 5674 5670 5664 5660 5655 5652 5651 5652 5652 5652 5649 5642 5639 5637 5638 5638 5638 5639
5732 5730 5727 5723 5721 5719 5716 5712 5709 5707 5704 5701 5698 5696 5693 5691 5690 5687 5684 5682 5678 5676 5674 5671 5668 5666 5663 5659 5652 5648 5645 5642 5642 5643 5639 5636 5632 5630 5631 5629 5629 5629 5632
5723 5721 5718 5715 5712 5710 5708 5705 5702 5699 5696 5693 5691 5688 5686 5685 5682 5679 5678 5674 5670 5667 5664 5661 5658 5656 5653 5649 5645 5642 5640 5635 5634 5634 5632 5628 5625 5623 5622 5622 5622 5623 5624
5715 5712 5710 5707 5705 5703 5700 5698 5695 5692 5689 5687 5684 5682 5680 5677 5673 5671 5667 5664 5659 5655 5651 5650 5648 5645 5642 5637 5629 5628 5630 5627 5626 5623 5624 5625 5623 5620 5619 5618 5617 5616 5615
5707 5704 5702 5700 5698 5696 5693 5691 5688 5686 5682 5679 5677 5676 5673 5670 5668 5665 5661 5654 5650 5645 5640 5636 5633 5634 5629 5624 5621 5619 5617 5615 5613 5613 5617 5617 5615 5613 5612 5611 5610 5609 5607